Chehalis, WA
on Monday, December 24, 2012

Monday
Previous Day Next Day
Daily Summary
 ActualAverage (KOLM)Record (KOLM)
Temperature
Mean Temperature °F 38°F  
Max Temperature 46°F 44°F 60°F (2005)
Min Temperature 37°F 32°F 11°F (1990)
Degree Days
Heating Degree Days 24 27  
Month to date heating degree days 637  
Since 1 July heating degree days 2082  
Cooling Degree Days 0 0  
Month to date cooling degree days 0  
Year to date cooling degree days 106  
Moisture
Dew Point 37°F   
Average Humidity 90    
Maximum Humidity 100    
Minimum Humidity 66    
Precipitation
Precipitation 0.05 in 0.23 in 1.41 in (1949)
Month to date precipitation 5.85  
Year to date precipitation 48.39  
Wind
Wind Speed 7 mph   
Max Wind Speed 9 mph   
Max Gust Speed mph   
Visibility 8 miles   
Events Rain   

Key: T is trace of precipitation, MM is missing value
Source: NWS Daily Summary
Time(PST)TemperatureDew PointHumidity Pressure Visibility Wind DirectionWind SpeedGust SpeedPrecipitationEvents Conditions
12:15 AM 39.2°F 37.4°F 93% 29.87 in 7.0 miles South 8.1 mph - N/A   Overcast
12:35 AM 39.2°F 37.4°F 93% 29.88 in 10.0 miles South 8.1 mph - N/A   Overcast
12:55 AM 39.2°F 37.4°F 93% 29.89 in 5.0 miles SSE 9.2 mph - N/A   Overcast
1:15 AM 39.2°F 37.4°F 93% 29.89 in 10.0 miles South 8.1 mph - 0.01 in   Overcast
1:35 AM 39.2°F 37.4°F 93% 29.91 in 10.0 miles South 8.1 mph - 0.01 in   Overcast
1:55 AM 39.2°F 37.4°F 93% 29.92 in 9.0 miles South 8.1 mph - 0.01 in Rain Light Rain
2:15 AM 37.4°F 37.4°F 100% 29.93 in 10.0 miles South 5.8 mph - N/A   Overcast
2:35 AM 37.4°F 37.4°F 100% 29.94 in 7.0 miles South 6.9 mph - N/A   Overcast
2:55 AM 37.4°F 37.4°F 100% 29.95 in 9.0 miles South 5.8 mph - N/A   Overcast
3:15 AM 37.4°F 35.6°F 93% 29.96 in 5.0 miles SSW 6.9 mph - N/A   Overcast
3:35 AM 37.4°F 37.4°F 100% 29.97 in 8.0 miles South 6.9 mph - N/A   Overcast
3:55 AM 37.4°F 37.4°F 100% 29.98 in 9.0 miles SSE 8.1 mph - N/A   Overcast
4:15 AM 37.4°F 37.4°F 100% 29.98 in 5.0 miles South 6.9 mph - N/A   Overcast
4:35 AM 37.4°F 37.4°F 100% 29.99 in 10.0 miles SSW 5.8 mph - N/A   Overcast
4:55 AM 37.4°F 37.4°F 100% 30.00 in 10.0 miles South 6.9 mph - N/A   Overcast
5:15 AM 37.4°F 37.4°F 100% 30.01 in 9.0 miles SSW 6.9 mph - N/A   Overcast
5:35 AM 37.4°F 37.4°F 100% 30.02 in 7.0 miles South 4.6 mph - 0.01 in Rain Light Rain
5:55 AM 37.4°F 37.4°F 100% 30.02 in 8.0 miles South 8.1 mph - 0.01 in Rain Light Rain
6:15 AM 37.4°F 37.4°F 100% 30.04 in 7.0 miles SW 5.8 mph - N/A   Overcast
6:35 AM 37.4°F 37.4°F 100% 30.04 in 10.0 miles SSW 5.8 mph - N/A   Overcast
6:55 AM 39.2°F 37.4°F 93% 30.05 in 9.0 miles SSW 5.8 mph - N/A   Overcast
7:15 AM 39.2°F 37.4°F 93% 30.06 in 5.0 miles SSE 6.9 mph - 0.01 in Rain Light Rain
7:35 AM 39.2°F 37.4°F 93% 30.07 in 9.0 miles SSW 6.9 mph - 0.01 in   Overcast
7:55 AM 39.2°F 37.4°F 93% 30.08 in 10.0 miles South 6.9 mph - 0.01 in   Overcast
8:15 AM 39.2°F 37.4°F 93% 30.09 in 4.0 miles South 3.5 mph - 0.01 in   Overcast
8:35 AM 39.2°F 37.4°F 93% 30.10 in 9.0 miles South 6.9 mph - 0.02 in   Overcast
8:55 AM 39.2°F 37.4°F 93% 30.11 in 10.0 miles South 6.9 mph - 0.02 in   Overcast
9:15 AM 39.2°F 37.4°F 93% 30.13 in 5.0 miles SSW 6.9 mph - N/A   Overcast
9:35 AM 39.2°F 37.4°F 93% 30.14 in 5.0 miles SSE 6.9 mph - N/A Rain Light Rain
9:55 AM 39.2°F 39.2°F 100% 30.14 in 10.0 miles SSE 5.8 mph - N/A   Scattered Clouds
10:15 AM 41.0°F 39.2°F 93% 30.15 in 10.0 miles South 6.9 mph - N/A   Mostly Cloudy
10:35 AM 41.0°F 39.2°F 93% 30.15 in 9.0 miles South 8.1 mph - N/A   Overcast
10:55 AM 41.0°F 39.2°F 93% 30.17 in 10.0 miles South 6.9 mph - N/A   Overcast
11:15 AM 41.0°F 39.2°F 93% 30.17 in 8.0 miles South 8.1 mph - N/A   Overcast
11:35 AM 42.8°F 39.2°F 87% 30.17 in 8.0 miles South 6.9 mph - N/A   Mostly Cloudy
11:55 AM 44.6°F 41.0°F 87% 30.17 in 10.0 miles South 8.1 mph - N/A   Mostly Cloudy
12:15 PM 44.6°F 41.0°F 87% 30.17 in 10.0 miles SSE 5.8 mph - N/A   Mostly Cloudy
12:35 PM 44.6°F 41.0°F 87% 30.17 in 10.0 miles South 5.8 mph - N/A   Mostly Cloudy
12:55 PM 44.6°F 39.2°F 81% 30.17 in 10.0 miles SW 8.1 mph - N/A   Overcast
1:15 PM 46.4°F 37.4°F 71% 30.18 in 5.0 miles SW 8.1 mph - N/A   Haze
1:35 PM 46.4°F 35.6°F 66% 30.18 in 5.0 miles SW 5.8 mph - N/A   Haze
1:55 PM 46.4°F 35.6°F 66% 30.17 in 5.0 miles SW 4.6 mph - N/A   Haze
2:15 PM 46.4°F 35.6°F 66% 30.17 in 5.0 miles SSW 5.8 mph - N/A   Haze
2:35 PM 46.4°F 37.4°F 71% 30.17 in 5.0 miles South 3.5 mph - N/A   Haze
2:55 PM 46.4°F 39.2°F 76% 30.17 in 8.0 miles SSE 4.6 mph - N/A   Overcast
3:15 PM 46.4°F 37.4°F 71% 30.17 in 7.0 miles South 5.8 mph - N/A   Overcast
3:35 PM 44.6°F 39.2°F 81% 30.17 in 9.0 miles South 8.1 mph - N/A   Mostly Cloudy
3:55 PM 44.6°F 37.4°F 76% 30.17 in 5.0 miles South 6.9 mph - N/A   Haze
4:15 PM 42.8°F 37.4°F 81% 30.17 in 5.0 miles SSE 5.8 mph - N/A   Haze
4:35 PM 41.0°F 37.4°F 87% 30.17 in 10.0 miles South 4.6 mph - N/A   Clear
4:55 PM 41.0°F 37.4°F 87% 30.17 in 10.0 miles South 4.6 mph - N/A   Clear
5:15 PM 41.0°F 37.4°F 87% 30.17 in 6.0 miles Calm Calm - N/A   Clear
5:35 PM 41.0°F 37.4°F 87% 30.17 in 6.0 miles South 4.6 mph - N/A   Clear
5:55 PM 41.0°F 37.4°F 87% 30.16 in 10.0 miles South 5.8 mph - N/A   Clear
6:15 PM 39.2°F 37.4°F 93% 30.16 in 9.0 miles South 4.6 mph - N/A   Clear
6:35 PM 39.2°F 35.6°F 87% 30.15 in 10.0 miles South 5.8 mph - N/A   Clear
6:55 PM 39.2°F 35.6°F 87% 30.14 in 10.0 miles South 4.6 mph - N/A   Clear
7:15 PM 39.2°F 35.6°F 87% 30.14 in 9.0 miles South 3.5 mph - N/A   Clear
7:35 PM 39.2°F 35.6°F 87% 30.13 in 6.0 miles SSW 5.8 mph - N/A   Clear
7:55 PM 37.4°F 35.6°F 93% 30.12 in 9.0 miles South 5.8 mph - N/A   Partly Cloudy
8:15 PM 37.4°F 35.6°F 93% 30.11 in 6.0 miles SW 4.6 mph - N/A   Partly Cloudy
8:35 PM 37.4°F 35.6°F 93% 30.11 in 10.0 miles SW 4.6 mph - N/A   Clear
8:55 PM 37.4°F 35.6°F 93% 30.11 in 10.0 miles SW 4.6 mph - N/A   Partly Cloudy
9:15 PM 37.4°F 33.8°F 87% 30.12 in 8.0 miles SSW 4.6 mph - N/A   Scattered Clouds
9:35 PM 37.4°F 33.8°F 87% 30.11 in 7.0 miles South 4.6 mph - N/A   Mostly Cloudy
9:55 PM 37.4°F 35.6°F 93% 30.10 in 10.0 miles South 4.6 mph - N/A   Overcast
10:15 PM 37.4°F 35.6°F 93% 30.09 in 8.0 miles SSW 3.5 mph - N/A   Overcast
10:35 PM 37.4°F 35.6°F 93% 30.09 in 9.0 miles SW 3.5 mph - N/A   Overcast
10:55 PM 37.4°F 33.8°F 87% 30.08 in 10.0 miles SW 3.5 mph - N/A   Overcast
11:15 PM 37.4°F 33.8°F 87% 30.07 in 10.0 miles Calm Calm - N/A   Overcast
11:35 PM 37.4°F 35.6°F 93% 30.05 in 8.0 miles Calm Calm - N/A   Overcast
11:55 PM 37.4°F 35.6°F 93% 30.05 in 7.0 miles Calm Calm - N/A   Overcast
Moon Phase
Dec. 24 Dec. 28 Jan. 04 Jan. 11 Jan. 18
Sunrise:07:55 AM (PST) Moon Rise:02:03 PM (PST)12/24
Sunset:04:28 PM (PST) Moon Set:04:33 AM (PST)12/24

Copyright © 2014 The Weather Underground, Inc.